Time,TemperatureF,DewpointF,PressureIn,WindDirection,WindDirectionDegrees,WindSpeedMPH,WindSpeedGustMPH,Humidity,HourlyPrecipIn,Conditions,Clouds,dailyrainin,SoftwareType,DateUTC
2013-03-17 00:05:00,59.8,56.0,30.12,SSW,204,0.0,-999.0,87,-99.99,,,0.00,weatherlink.com 1.10,2013-03-17 04:05:00,
2013-03-17 00:20:00,59.6,56.0,30.12,SSW,203,0.0,-999.0,87,-99.99,,,0.00,weatherlink.com 1.10,2013-03-17 04:20:00,
2013-03-17 00:35:00,59.0,55.0,30.12,SSW,203,0.0,-999.0,87,-99.99,,,0.00,weatherlink.com 1.10,2013-03-17 04:35:00,
2013-03-17 00:50:00,58.4,55.0,30.11,SSW,203,0.0,-999.0,87,-99.99,,,0.00,weatherlink.com 1.10,2013-03-17 04:50:00,
2013-03-17 01:05:00,58.2,55.0,30.11,SSW,203,0.0,-999.0,89,-99.99,,,0.00,weatherlink.com 1.10,2013-03-17 05:05:00,
2013-03-17 01:20:00,58.2,55.0,30.11,SSW,203,0.0,-999.0,89,-99.99,,,0.00,weatherlink.com 1.10,2013-03-17 05:20:00,
2013-03-17 01:35:00,58.3,56.0,30.10,SSW,203,0.0,-999.0,90,-99.99,,,0.00,weatherlink.com 1.10,2013-03-17 05:35:00,
2013-03-17 01:50:00,58.0,55.0,30.10,SSW,203,0.0,-999.0,90,-99.99,,,0.00,weatherlink.com 1.10,2013-03-17 05:50:00,
2013-03-17 02:05:00,57.7,55.0,30.09,SSW,203,0.0,-999.0,91,-99.99,,,0.00,weatherlink.com 1.10,2013-03-17 06:05:00,
2013-03-17 02:20:00,57.3,55.0,30.09,SSW,203,0.0,-999.0,91,-99.99,,,0.00,weatherlink.com 1.10,2013-03-17 06:20:00,
2013-03-17 02:35:00,57.4,55.0,30.09,SSW,203,0.0,-999.0,92,-99.99,,,0.00,weatherlink.com 1.10,2013-03-17 06:35:00,
2013-03-17 02:50:00,57.3,55.0,30.09,SSW,203,0.0,-999.0,93,-99.99,,,0.00,weatherlink.com 1.10,2013-03-17 06:50:00,
2013-03-17 03:05:00,57.3,55.0,30.08,SSW,203,0.0,-999.0,93,-99.99,,,0.00,weatherlink.com 1.10,2013-03-17 07:05:00,
2013-03-17 03:20:00,57.2,55.0,30.08,SSW,203,0.0,-999.0,93,-99.99,,,0.00,weatherlink.com 1.10,2013-03-17 07:20:00,
2013-03-17 03:35:00,57.6,56.0,30.08,SSW,203,0.0,-999.0,94,-99.99,,,0.00,weatherlink.com 1.10,2013-03-17 07:35:00,
2013-03-17 03:50:00,58.3,57.0,30.08,SSW,203,0.0,-999.0,94,-99.99,,,0.00,weatherlink.com 1.10,2013-03-17 07:50:00,
2013-03-17 04:05:00,59.0,57.0,30.08,SSW,203,0.0,-999.0,94,-99.99,,,0.00,weatherlink.com 1.10,2013-03-17 08:05:00,
2013-03-17 04:20:00,59.6,57.0,30.07,WSW,240,0.0,-999.0,92,-99.99,,,0.00,weatherlink.com 1.10,2013-03-17 08:20:00,
2013-03-17 04:35:00,60.0,57.0,30.07,NW,319,0.0,-999.0,91,-99.99,,,0.00,weatherlink.com 1.10,2013-03-17 08:35:00,
2013-03-17 04:50:00,60.5,57.0,30.07,NW,318,0.0,-999.0,89,-99.99,,,0.00,weatherlink.com 1.10,2013-03-17 08:50:00,
2013-03-17 05:05:00,60.7,58.0,30.07,North,5,0.0,-999.0,89,-99.99,,,0.00,weatherlink.com 1.10,2013-03-17 09:05:00,
2013-03-17 05:20:00,60.9,57.0,30.08,NNW,344,0.0,-999.0,88,-99.99,,,0.00,weatherlink.com 1.10,2013-03-17 09:20:00,
2013-03-17 05:35:00,61.0,57.0,30.07,NW,313,0.0,-999.0,87,-99.99,,,0.00,weatherlink.com 1.10,2013-03-17 09:35:00,
2013-03-17 05:50:00,61.2,57.0,30.08,NW,307,0.0,-999.0,87,-99.99,,,0.00,weatherlink.com 1.10,2013-03-17 09:50:00,
2013-03-17 06:05:00,61.3,57.0,30.08,NW,306,0.0,-999.0,87,-99.99,,,0.00,weatherlink.com 1.10,2013-03-17 10:05:00,
2013-03-17 06:20:00,61.4,58.0,30.09,NW,307,0.0,-999.0,87,-99.99,,,0.00,weatherlink.com 1.10,2013-03-17 10:20:00,
2013-03-17 06:35:00,61.3,57.0,30.09,NW,307,0.0,-999.0,86,-99.99,,,0.00,weatherlink.com 1.10,2013-03-17 10:35:00,
2013-03-17 06:50:00,61.4,58.0,30.09,ESE,105,0.0,-999.0,87,-99.99,,,0.00,weatherlink.com 1.10,2013-03-17 10:50:00,
2013-03-17 07:05:00,61.4,58.0,30.09,ESE,105,0.0,-999.0,87,-99.99,,,0.00,weatherlink.com 1.10,2013-03-17 11:05:00,
2013-03-17 07:20:00,61.4,58.0,30.09,ESE,105,0.0,-999.0,87,-99.99,,,0.00,weatherlink.com 1.10,2013-03-17 11:20:00,
2013-03-17 07:35:00,61.5,58.0,30.09,ESE,105,0.0,-999.0,87,-99.99,,,0.00,weatherlink.com 1.10,2013-03-17 11:35:00,
2013-03-17 07:50:00,61.6,58.0,30.09,ESE,105,0.0,-999.0,87,-99.99,,,0.00,weatherlink.com 1.10,2013-03-17 11:50:00,
2013-03-17 08:05:00,61.8,58.0,30.11,ESE,105,0.0,-999.0,88,-99.99,,,0.00,weatherlink.com 1.10,2013-03-17 12:05:00,
2013-03-17 08:20:00,61.9,58.0,30.11,East,100,0.0,-999.0,88,-99.99,,,0.00,weatherlink.com 1.10,2013-03-17 12:20:00,
2013-03-17 08:35:00,62.5,59.0,30.12,East,100,0.0,-999.0,88,-99.99,,,0.00,weatherlink.com 1.10,2013-03-17 12:35:00,
2013-03-17 08:50:00,63.7,59.0,30.12,East,99,0.0,-999.0,85,-99.99,,,0.00,weatherlink.com 1.10,2013-03-17 12:50:00,
2013-03-17 09:06:00,65.1,60.0,30.12,East,100,0.0,-999.0,84,-99.99,,,0.00,weatherlink.com 1.10,2013-03-17 13:06:00,
2013-03-17 09:21:00,66.3,61.0,30.13,East,98,0.0,-999.0,82,-99.99,,,0.00,weatherlink.com 1.10,2013-03-17 13:21:00,
2013-03-17 09:36:00,68.4,61.0,30.14,NNE,29,0.0,-999.0,76,-99.99,,,0.00,weatherlink.com 1.10,2013-03-17 13:36:00,
2013-03-17 09:51:00,70.0,60.0,30.14,NNW,331,0.0,-999.0,71,-99.99,,,0.00,weatherlink.com 1.10,2013-03-17 13:51:00,
2013-03-17 10:06:00,70.7,60.0,30.14,NW,318,0.0,-999.0,70,-99.99,,,0.00,weatherlink.com 1.10,2013-03-17 14:06:00,
2013-03-17 10:21:00,71.9,59.0,30.13,SSE,155,1.0,-999.0,65,-99.99,,,0.00,weatherlink.com 1.10,2013-03-17 14:21:00,
2013-03-17 10:35:00,73.5,61.0,30.13,ENE,78,2.0,-999.0,64,-99.99,,,0.00,weatherlink.com 1.10,2013-03-17 14:35:00,
2013-03-17 10:50:00,73.9,59.0,30.13,SSE,154,4.0,-999.0,59,-99.99,,,0.00,weatherlink.com 1.10,2013-03-17 14:50:00,
2013-03-17 11:05:00,74.7,58.0,30.13,ESE,114,6.0,-999.0,57,-99.99,,,0.00,weatherlink.com 1.10,2013-03-17 15:05:00,
2013-03-17 11:20:00,75.1,57.0,30.12,South,169,8.0,-999.0,54,-99.99,,,0.00,weatherlink.com 1.10,2013-03-17 15:20:00,
2013-03-17 11:35:00,74.3,60.0,30.12,ESE,122,4.0,-999.0,62,-99.99,,,0.00,weatherlink.com 1.10,2013-03-17 15:35:00,
2013-03-17 11:50:00,74.9,61.0,30.12,East,101,6.0,-999.0,63,-99.99,,,0.00,weatherlink.com 1.10,2013-03-17 15:50:00,
2013-03-17 12:05:00,74.9,60.0,30.13,SE,133,7.0,-999.0,61,-99.99,,,0.00,weatherlink.com 1.10,2013-03-17 16:05:00,
2013-03-17 12:21:00,74.8,61.0,30.12,SSE,148,1.0,-999.0,62,-99.99,,,0.00,weatherlink.com 1.10,2013-03-17 16:21:00,
2013-03-17 12:36:00,75.0,60.0,30.12,SSE,163,5.0,-999.0,60,-99.99,,,0.00,weatherlink.com 1.10,2013-03-17 16:36:00,
2013-03-17 12:51:00,75.1,60.0,30.11,SSE,148,1.0,-999.0,60,-99.99,,,0.00,weatherlink.com 1.10,2013-03-17 16:51:00,
2013-03-17 13:06:00,76.0,60.0,30.11,East,100,5.0,-999.0,57,-99.99,,,0.00,weatherlink.com 1.10,2013-03-17 17:06:00,
2013-03-17 13:21:00,75.2,60.0,30.11,SW,219,5.0,-999.0,59,-99.99,,,0.00,weatherlink.com 1.10,2013-03-17 17:21:00,
2013-03-17 13:36:00,75.5,60.0,30.10,SSE,161,4.0,-999.0,59,-99.99,,,0.00,weatherlink.com 1.10,2013-03-17 17:36:00,
2013-03-17 13:51:00,75.4,59.0,30.10,SSE,153,1.0,-999.0,58,-99.99,,,0.00,weatherlink.com 1.10,2013-03-17 17:51:00,
2013-03-17 14:06:00,75.3,60.0,30.09,SSE,148,4.0,-999.0,59,-99.99,,,0.00,weatherlink.com 1.10,2013-03-17 18:06:00,
2013-03-17 14:21:00,75.9,59.0,30.08,SSE,148,5.0,-999.0,57,-99.99,,,0.00,weatherlink.com 1.10,2013-03-17 18:21:00,
2013-03-17 14:36:00,77.0,59.0,30.07,SE,138,6.0,-999.0,54,-99.99,,,0.00,weatherlink.com 1.10,2013-03-17 18:36:00,
2013-03-17 14:51:00,76.7,60.0,30.07,East,100,5.0,-999.0,56,-99.99,,,0.00,weatherlink.com 1.10,2013-03-17 18:51:00,
2013-03-17 15:21:00,76.8,61.0,30.05,SE,128,12.0,-999.0,58,-99.99,,,0.00,weatherlink.com 1.10,2013-03-17 19:21:00,
2013-03-17 15:51:00,76.2,61.0,30.04,ESE,115,7.0,-999.0,59,-99.99,,,0.00,weatherlink.com 1.10,2013-03-17 19:51:00,
2013-03-17 16:06:00,76.0,60.0,30.05,SSE,150,5.0,-999.0,58,-99.99,,,0.00,weatherlink.com 1.10,2013-03-17 20:06:00,
2013-03-17 16:21:00,75.5,60.0,30.04,ESE,123,6.0,-999.0,58,-99.99,,,0.00,weatherlink.com 1.10,2013-03-17 20:21:00,
2013-03-17 16:36:00,75.1,60.0,30.04,WSW,242,3.0,-999.0,59,-99.99,,,0.00,weatherlink.com 1.10,2013-03-17 20:36:00,
2013-03-17 16:51:00,74.7,60.0,30.03,ESE,121,1.0,-999.0,60,-99.99,,,0.00,weatherlink.com 1.10,2013-03-17 20:51:00,
2013-03-17 17:06:00,74.5,60.0,30.04,ESE,123,6.0,-999.0,60,-99.99,,,0.00,weatherlink.com 1.10,2013-03-17 21:06:00,
2013-03-17 17:36:00,74.6,59.0,30.04,SSE,150,5.0,-999.0,59,-99.99,,,0.00,weatherlink.com 1.10,2013-03-17 21:36:00,
2013-03-17 18:06:00,74.1,59.0,30.05,ESE,102,6.0,-999.0,60,-99.99,,,0.00,weatherlink.com 1.10,2013-03-17 22:06:00,
2013-03-17 18:21:00,74.1,59.0,30.04,SW,214,8.0,-999.0,59,-99.99,,,0.00,weatherlink.com 1.10,2013-03-17 22:21:00,
2013-03-17 18:36:00,73.6,59.0,30.04,SSE,155,5.0,-999.0,60,-99.99,,,0.00,weatherlink.com 1.10,2013-03-17 22:36:00,
2013-03-17 18:51:00,73.0,60.0,30.03,SE,143,4.0,-999.0,64,-99.99,,,0.00,weatherlink.com 1.10,2013-03-17 22:51:00,
2013-03-17 19:21:00,72.0,60.0,30.03,SSE,166,1.0,-999.0,65,-99.99,,,0.00,weatherlink.com 1.10,2013-03-17 23:21:00,
2013-03-17 19:36:00,71.4,60.0,30.02,SSE,159,0.0,-999.0,67,-99.99,,,0.00,weatherlink.com 1.10,2013-03-17 23:36:00,
2013-03-17 19:51:00,71.2,60.0,30.03,SSE,148,2.0,-999.0,67,-99.99,,,0.00,weatherlink.com 1.10,2013-03-17 23:51:00,
2013-03-17 20:06:00,71.0,59.0,30.04,SSW,210,1.0,-999.0,67,-99.99,,,0.00,weatherlink.com 1.10,2013-03-18 00:06:00,
2013-03-17 20:21:00,70.9,60.0,30.04,SE,133,1.0,-999.0,68,-99.99,,,0.00,weatherlink.com 1.10,2013-03-18 00:21:00,
2013-03-17 20:36:00,70.8,60.0,30.04,SSE,152,1.0,-999.0,68,-99.99,,,0.00,weatherlink.com 1.10,2013-03-18 00:36:00,
2013-03-17 20:51:00,70.6,60.0,30.04,SSE,163,0.0,-999.0,69,-99.99,,,0.00,weatherlink.com 1.10,2013-03-18 00:51:00,
2013-03-17 21:06:00,70.1,60.0,30.04,SSE,148,1.0,-999.0,70,-99.99,,,0.00,weatherlink.com 1.10,2013-03-18 01:06:00,
2013-03-17 21:21:00,70.1,60.0,30.04,SE,141,1.0,-999.0,71,-99.99,,,0.00,weatherlink.com 1.10,2013-03-18 01:21:00,
2013-03-17 21:36:00,70.0,60.0,30.04,SE,138,1.0,-999.0,71,-99.99,,,0.00,weatherlink.com 1.10,2013-03-18 01:36:00,
2013-03-17 21:51:00,70.2,60.0,30.05,SSE,148,2.0,-999.0,71,-99.99,,,0.00,weatherlink.com 1.10,2013-03-18 01:51:00,
2013-03-17 22:06:00,70.2,61.0,30.06,SSE,153,0.0,-999.0,73,-99.99,,,0.00,weatherlink.com 1.10,2013-03-18 02:06:00,
2013-03-17 22:21:00,69.9,62.0,30.06,ESE,119,0.0,-999.0,75,-99.99,,,0.00,weatherlink.com 1.10,2013-03-18 02:21:00,
2013-03-17 22:36:00,69.6,62.0,30.07,SE,146,0.0,-999.0,76,-99.99,,,0.00,weatherlink.com 1.10,2013-03-18 02:36:00,
2013-03-17 22:51:00,69.3,62.0,30.07,SE,136,0.0,-999.0,77,-99.99,,,0.00,weatherlink.com 1.10,2013-03-18 02:51:00,
2013-03-17 23:06:00,68.9,61.0,30.07,South,185,0.0,-999.0,77,-99.99,,,0.00,weatherlink.com 1.10,2013-03-18 03:06:00,
2013-03-17 23:21:00,68.6,62.0,30.08,SE,141,1.0,-999.0,78,-99.99,,,0.00,weatherlink.com 1.10,2013-03-18 03:21:00,
2013-03-17 23:36:00,68.3,61.0,30.07,ESE,103,2.0,-999.0,78,-99.99,,,0.00,weatherlink.com 1.10,2013-03-18 03:36:00,
2013-03-17 23:51:00,68.1,61.0,30.07,SE,141,0.0,-999.0,79,-99.99,,,0.00,weatherlink.com 1.10,2013-03-18 03:51:00,